Location: Pagani
(40.7500°N, 14.6167°E)
Time: 12:02:53
(UTC+00:00)

Cosmos 1626 Rocket - Pass Details

Date: 15 May 2026
Orbit: 597 x 623 km, 82.5° (Epoch: 5 June)

Event Time Altitude Azimuth Distance (km) Brightness Sun altitude
Rises 19:20:03 0° 1° (N) 2,880 7.6 -11.7°
Reaches altitude 10° 19:22:27 10° 11° (N) 1,976 6.5 -12.1°
Maximum altitude 19:26:25 33° 77° (ENE) 1,029 4.4 -12.7°
Enters shadow 19:28:45 20° 128° (SE) 1,429 4.8 -13.0°
